owner,sensor,date,latitude,longitude,air_pressure(mBar),qcFlag 
WAVCIS,ioos:station:WAVCIS:CSI06:1,2010-10-01T00:00:00Z,28.8667,-90.4833,1008.71,11111222 
WAVCIS,ioos:station:WAVCIS:CSI06:1,2010-10-01T01:00:00Z,28.8667,-90.4833,1009.35,11111222 
WAVCIS,ioos:station:WAVCIS:CSI06:1,2010-10-01T02:00:00Z,28.8667,-90.4833,1010.23,11111222 
WAVCIS,ioos:station:WAVCIS:CSI06:1,2010-10-01T03:00:00Z,28.8667,-90.4833,1011.0,11111222 
WAVCIS,ioos:station:WAVCIS:CSI06:1,2010-10-01T04:00:00Z,28.8667,-90.4833,1011.38,11111222 
WAVCIS,ioos:station:WAVCIS:CSI06:1,2010-10-01T05:00:00Z,28.8667,-90.4833,1011.29,11111222 
WAVCIS,ioos:station:WAVCIS:CSI06:1,2010-10-01T06:00:00Z,28.8667,-90.4833,1011.15,11111222 
WAVCIS,ioos:station:WAVCIS:CSI06:1,2010-10-01T07:00:00Z,28.8667,-90.4833,1010.99,11111222 
WAVCIS,ioos:station:WAVCIS:CSI06:1,2010-10-01T08:00:00Z,28.8667,-90.4833,1010.66,11111222 
WAVCIS,ioos:station:WAVCIS:CSI06:1,2010-10-01T09:00:00Z,28.8667,-90.4833,1010.47,11111222 
WAVCIS,ioos:station:WAVCIS:CSI06:1,2010-10-01T10:00:00Z,28.8667,-90.4833,1010.58,11111222 
WAVCIS,ioos:station:WAVCIS:CSI06:1,2010-10-01T11:00:00Z,28.8667,-90.4833,1011.13,11111222 
WAVCIS,ioos:station:WAVCIS:CSI06:1,2010-10-01T12:00:00Z,28.8667,-90.4833,1011.61,11111222 
WAVCIS,ioos:station:WAVCIS:CSI06:1,2010-10-01T13:00:00Z,28.8667,-90.4833,1012.2,11111222 
WAVCIS,ioos:station:WAVCIS:CSI06:1,2010-10-01T14:00:00Z,28.8667,-90.4833,1012.6,11111222 
WAVCIS,ioos:station:WAVCIS:CSI06:1,2010-10-01T15:00:00Z,28.8667,-90.4833,1013.04,11111222 
WAVCIS,ioos:station:WAVCIS:CSI06:1,2010-10-01T16:00:00Z,28.8667,-90.4833,1013.09,11111222 
WAVCIS,ioos:station:WAVCIS:CSI06:1,2010-10-01T17:00:00Z,28.8667,-90.4833,1012.85,11111222 
WAVCIS,ioos:station:WAVCIS:CSI06:1,2010-10-01T18:00:00Z,28.8667,-90.4833,1012.37,11111222 
WAVCIS,ioos:station:WAVCIS:CSI06:1,2010-10-01T19:00:00Z,28.8667,-90.4833,1011.77,11111222 
WAVCIS,ioos:station:WAVCIS:CSI06:1,2010-10-01T20:00:00Z,28.8667,-90.4833,1011.23,11111222 
WAVCIS,ioos:station:WAVCIS:CSI06:1,2010-10-01T21:00:00Z,28.8667,-90.4833,1010.74,11111222 
WAVCIS,ioos:station:WAVCIS:CSI06:1,2010-10-01T22:00:00Z,28.8667,-90.4833,1010.63,11111222 
WAVCIS,ioos:station:WAVCIS:CSI06:1,2010-10-01T23:00:00Z,28.8667,-90.4833,1010.63,11111222 
WAVCIS,ioos:station:WAVCIS:CSI06:1,2010-10-02T00:00:00Z,28.8667,-90.4833,1010.93,11111222 
WAVCIS,ioos:station:WAVCIS:CSI06:1,2010-10-02T01:00:00Z,28.8667,-90.4833,1011.26,11111222 
WAVCIS,ioos:station:WAVCIS:CSI06:1,2010-10-02T02:00:00Z,28.8667,-90.4833,1011.77,11111222 
WAVCIS,ioos:station:WAVCIS:CSI06:1,2010-10-02T03:00:00Z,28.8667,-90.4833,1012.17,11111222 
WAVCIS,ioos:station:WAVCIS:CSI06:1,2010-10-02T04:00:00Z,28.8667,-90.4833,1012.35,11111222 
WAVCIS,ioos:station:WAVCIS:CSI06:1,2010-10-02T05:00:00Z,28.8667,-90.4833,1012.13,11111222 
WAVCIS,ioos:station:WAVCIS:CSI06:1,2010-10-02T06:00:00Z,28.8667,-90.4833,1011.82,11111222 
WAVCIS,ioos:station:WAVCIS:CSI06:1,2010-10-02T07:00:00Z,28.8667,-90.4833,1011.7,11111222 
WAVCIS,ioos:station:WAVCIS:CSI06:1,2010-10-02T08:00:00Z,28.8667,-90.4833,1011.54,11111222 
WAVCIS,ioos:station:WAVCIS:CSI06:1,2010-10-02T09:00:00Z,28.8667,-90.4833,1011.31,11111222 
WAVCIS,ioos:station:WAVCIS:CSI06:1,2010-10-02T10:00:00Z,28.8667,-90.4833,1011.54,11111222 
WAVCIS,ioos:station:WAVCIS:CSI06:1,2010-10-02T11:00:00Z,28.8667,-90.4833,1011.84,11111222 
WAVCIS,ioos:station:WAVCIS:CSI06:1,2010-10-02T12:00:00Z,28.8667,-90.4833,1012.16,11111222 
WAVCIS,ioos:station:WAVCIS:CSI06:1,2010-10-02T13:00:00Z,28.8667,-90.4833,1012.55,11111222 
WAVCIS,ioos:station:WAVCIS:CSI06:1,2010-10-02T14:00:00Z,28.8667,-90.4833,1013.32,11111222 
WAVCIS,ioos:station:WAVCIS:CSI06:1,2010-10-02T15:00:00Z,28.8667,-90.4833,1013.78,11111222 
WAVCIS,ioos:station:WAVCIS:CSI06:1,2010-10-02T16:00:00Z,28.8667,-90.4833,1014.01,11111222 
WAVCIS,ioos:station:WAVCIS:CSI06:1,2010-10-02T17:00:00Z,28.8667,-90.4833,1013.61,11111222 
WAVCIS,ioos:station:WAVCIS:CSI06:1,2010-10-02T18:00:00Z,28.8667,-90.4833,1013.16,11111222 
WAVCIS,ioos:station:WAVCIS:CSI06:1,2010-10-02T19:00:00Z,28.8667,-90.4833,1012.31,11111222 
WAVCIS,ioos:station:WAVCIS:CSI06:1,2010-10-02T20:00:00Z,28.8667,-90.4833,1011.83,11111222 
WAVCIS,ioos:station:WAVCIS:CSI06:1,2010-10-02T21:00:00Z,28.8667,-90.4833,1011.53,11111222 
WAVCIS,ioos:station:WAVCIS:CSI06:1,2010-10-02T22:00:00Z,28.8667,-90.4833,1011.52,11111222 
WAVCIS,ioos:station:WAVCIS:CSI06:1,2010-10-02T23:00:00Z,28.8667,-90.4833,1011.82,11111222 
WAVCIS,ioos:station:WAVCIS:CSI06:1,2010-10-03T00:00:00Z,28.8667,-90.4833,1012.13,11111222 
WAVCIS,ioos:station:WAVCIS:CSI06:1,2010-10-03T01:00:00Z,28.8667,-90.4833,1012.62,11111222 
WAVCIS,ioos:station:WAVCIS:CSI06:1,2010-10-03T02:00:00Z,28.8667,-90.4833,1012.97,11111222 
WAVCIS,ioos:station:WAVCIS:CSI06:1,2010-10-03T03:00:00Z,28.8667,-90.4833,1013.29,11111222 
WAVCIS,ioos:station:WAVCIS:CSI06:1,2010-10-03T04:00:00Z,28.8667,-90.4833,1013.53,11111222 
WAVCIS,ioos:station:WAVCIS:CSI06:1,2010-10-03T05:00:00Z,28.8667,-90.4833,1013.45,11111222 
WAVCIS,ioos:station:WAVCIS:CSI06:1,2010-10-03T06:00:00Z,28.8667,-90.4833,1013.43,11111222 
WAVCIS,ioos:station:WAVCIS:CSI06:1,2010-10-03T07:00:00Z,28.8667,-90.4833,1013.36,11111222 
WAVCIS,ioos:station:WAVCIS:CSI06:1,2010-10-03T08:00:00Z,28.8667,-90.4833,1013.42,11111222 
WAVCIS,ioos:station:WAVCIS:CSI06:1,2010-10-03T09:00:00Z,28.8667,-90.4833,1013.59,11111222 
WAVCIS,ioos:station:WAVCIS:CSI06:1,2010-10-03T10:00:00Z,28.8667,-90.4833,1014.29,11111222 
WAVCIS,ioos:station:WAVCIS:CSI06:1,2010-10-03T11:00:00Z,28.8667,-90.4833,1015.07,11111222 
WAVCIS,ioos:station:WAVCIS:CSI06:1,2010-10-03T12:00:00Z,28.8667,-90.4833,1015.81,11111222 
WAVCIS,ioos:station:WAVCIS:CSI06:1,2010-10-03T13:00:00Z,28.8667,-90.4833,1016.6,11111222 
WAVCIS,ioos:station:WAVCIS:CSI06:1,2010-10-03T14:00:00Z,28.8667,-90.4833,1017.47,11111222 
WAVCIS,ioos:station:WAVCIS:CSI06:1,2010-10-03T15:00:00Z,28.8667,-90.4833,1017.99,11111222 
WAVCIS,ioos:station:WAVCIS:CSI06:1,2010-10-03T16:00:00Z,28.8667,-90.4833,1018.1,11111222 
WAVCIS,ioos:station:WAVCIS:CSI06:1,2010-10-03T17:00:00Z,28.8667,-90.4833,1018.19,11111222 
WAVCIS,ioos:station:WAVCIS:CSI06:1,2010-10-03T18:00:00Z,28.8667,-90.4833,1017.55,11111222 
WAVCIS,ioos:station:WAVCIS:CSI06:1,2010-10-03T19:00:00Z,28.8667,-90.4833,1016.63,11111222 
WAVCIS,ioos:station:WAVCIS:CSI06:1,2010-10-03T20:00:00Z,28.8667,-90.4833,1016.17,11111222 
WAVCIS,ioos:station:WAVCIS:CSI06:1,2010-10-03T21:00:00Z,28.8667,-90.4833,1016.16,11111222 
WAVCIS,ioos:station:WAVCIS:CSI06:1,2010-10-03T22:00:00Z,28.8667,-90.4833,1015.99,11111222 
WAVCIS,ioos:station:WAVCIS:CSI06:1,2010-10-03T23:00:00Z,28.8667,-90.4833,1016.34,11111222 
WAVCIS,ioos:station:WAVCIS:CSI06:1,2010-10-04T00:00:00Z,28.8667,-90.4833,1016.8,11111222 
WAVCIS,ioos:station:WAVCIS:CSI06:1,2010-10-04T01:00:00Z,28.8667,-90.4833,1017.63,11111222 
WAVCIS,ioos:station:WAVCIS:CSI06:1,2010-10-04T02:00:00Z,28.8667,-90.4833,1018.54,11111222 
WAVCIS,ioos:station:WAVCIS:CSI06:1,2010-10-04T03:00:00Z,28.8667,-90.4833,1019.49,11111222 
WAVCIS,ioos:station:WAVCIS:CSI06:1,2010-10-04T04:00:00Z,28.8667,-90.4833,1019.78,11111222 
WAVCIS,ioos:station:WAVCIS:CSI06:1,2010-10-04T05:00:00Z,28.8667,-90.4833,1019.47,11111222 
WAVCIS,ioos:station:WAVCIS:CSI06:1,2010-10-04T06:00:00Z,28.8667,-90.4833,1019.35,11111222 
WAVCIS,ioos:station:WAVCIS:CSI06:1,2010-10-04T07:00:00Z,28.8667,-90.4833,1019.37,11111222 
WAVCIS,ioos:station:WAVCIS:CSI06:1,2010-10-04T08:00:00Z,28.8667,-90.4833,1019.3,11111222 
WAVCIS,ioos:station:WAVCIS:CSI06:1,2010-10-04T09:00:00Z,28.8667,-90.4833,1019.47,11111222 
WAVCIS,ioos:station:WAVCIS:CSI06:1,2010-10-04T10:00:00Z,28.8667,-90.4833,1020.05,11111222 
WAVCIS,ioos:station:WAVCIS:CSI06:1,2010-10-04T11:00:00Z,28.8667,-90.4833,1020.78,11111222 
WAVCIS,ioos:station:WAVCIS:CSI06:1,2010-10-04T12:00:00Z,28.8667,-90.4833,1021.4,11111222 
WAVCIS,ioos:station:WAVCIS:CSI06:1,2010-10-04T13:00:00Z,28.8667,-90.4833,1021.79,11111222 
WAVCIS,ioos:station:WAVCIS:CSI06:1,2010-10-04T14:00:00Z,28.8667,-90.4833,1022.6,11111222 
WAVCIS,ioos:station:WAVCIS:CSI06:1,2010-10-04T15:00:00Z,28.8667,-90.4833,1023.23,11111222 
WAVCIS,ioos:station:WAVCIS:CSI06:1,2010-10-04T16:00:00Z,28.8667,-90.4833,1023.53,11111222 
WAVCIS,ioos:station:WAVCIS:CSI06:1,2010-10-04T17:00:00Z,28.8667,-90.4833,1023.26,11111222 
WAVCIS,ioos:station:WAVCIS:CSI06:1,2010-10-04T18:00:00Z,28.8667,-90.4833,1022.5,11111222 
WAVCIS,ioos:station:WAVCIS:CSI06:1,2010-10-04T19:00:00Z,28.8667,-90.4833,1021.7,11111222 
WAVCIS,ioos:station:WAVCIS:CSI06:1,2010-10-04T20:00:00Z,28.8667,-90.4833,1021.1,11111222 
WAVCIS,ioos:station:WAVCIS:CSI06:1,2010-10-04T21:00:00Z,28.8667,-90.4833,1020.77,11111222 
WAVCIS,ioos:station:WAVCIS:CSI06:1,2010-10-04T22:00:00Z,28.8667,-90.4833,1020.7,11111222 
WAVCIS,ioos:station:WAVCIS:CSI06:1,2010-10-04T23:00:00Z,28.8667,-90.4833,1020.89,11111222 
WAVCIS,ioos:station:WAVCIS:CSI06:1,2010-10-05T00:00:00Z,28.8667,-90.4833,1021.2,11111222 
WAVCIS,ioos:station:WAVCIS:CSI06:1,2010-10-05T01:00:00Z,28.8667,-90.4833,1021.45,11111222 
WAVCIS,ioos:station:WAVCIS:CSI06:1,2010-10-05T02:00:00Z,28.8667,-90.4833,1022.11,11111222 
WAVCIS,ioos:station:WAVCIS:CSI06:1,2010-10-05T03:00:00Z,28.8667,-90.4833,1022.37,11111222 
WAVCIS,ioos:station:WAVCIS:CSI06:1,2010-10-05T04:00:00Z,28.8667,-90.4833,1022.4,11111222 
WAVCIS,ioos:station:WAVCIS:CSI06:1,2010-10-05T05:00:00Z,28.8667,-90.4833,1022.2,11111222 
WAVCIS,ioos:station:WAVCIS:CSI06:1,2010-10-05T06:00:00Z,28.8667,-90.4833,1021.96,11111222 
WAVCIS,ioos:station:WAVCIS:CSI06:1,2010-10-05T07:00:00Z,28.8667,-90.4833,1021.9,11111222 
WAVCIS,ioos:station:WAVCIS:CSI06:1,2010-10-05T08:00:00Z,28.8667,-90.4833,1021.82,11111222 
WAVCIS,ioos:station:WAVCIS:CSI06:1,2010-10-05T09:00:00Z,28.8667,-90.4833,1021.84,11111222 
WAVCIS,ioos:station:WAVCIS:CSI06:1,2010-10-05T10:00:00Z,28.8667,-90.4833,1022.03,11111222 
WAVCIS,ioos:station:WAVCIS:CSI06:1,2010-10-05T11:00:00Z,28.8667,-90.4833,1022.41,11111222 
WAVCIS,ioos:station:WAVCIS:CSI06:1,2010-10-05T12:00:00Z,28.8667,-90.4833,1022.96,11111222 
WAVCIS,ioos:station:WAVCIS:CSI06:1,2010-10-05T13:00:00Z,28.8667,-90.4833,1023.42,11111222 
WAVCIS,ioos:station:WAVCIS:CSI06:1,2010-10-05T14:00:00Z,28.8667,-90.4833,1024.15,11111222 
WAVCIS,ioos:station:WAVCIS:CSI06:1,2010-10-05T15:00:00Z,28.8667,-90.4833,1024.64,11111222 
WAVCIS,ioos:station:WAVCIS:CSI06:1,2010-10-05T16:00:00Z,28.8667,-90.4833,1024.92,11111222 
WAVCIS,ioos:station:WAVCIS:CSI06:1,2010-10-05T17:00:00Z,28.8667,-90.4833,1024.91,11111222 
WAVCIS,ioos:station:WAVCIS:CSI06:1,2010-10-05T18:00:00Z,28.8667,-90.4833,1024.41,11111222 
WAVCIS,ioos:station:WAVCIS:CSI06:1,2010-10-05T19:00:00Z,28.8667,-90.4833,1023.56,11111222 
WAVCIS,ioos:station:WAVCIS:CSI06:1,2010-10-05T20:00:00Z,28.8667,-90.4833,1022.71,11111222 
WAVCIS,ioos:station:WAVCIS:CSI06:1,2010-10-05T21:00:00Z,28.8667,-90.4833,1022.17,11111222 
WAVCIS,ioos:station:WAVCIS:CSI06:1,2010-10-05T22:00:00Z,28.8667,-90.4833,1021.95,11111222 
WAVCIS,ioos:station:WAVCIS:CSI06:1,2010-10-05T23:00:00Z,28.8667,-90.4833,1021.9,11111222 
WAVCIS,ioos:station:WAVCIS:CSI06:1,2010-10-06T00:00:00Z,28.8667,-90.4833,1022.16,11111222 
WAVCIS,ioos:station:WAVCIS:CSI06:1,2010-10-06T01:00:00Z,28.8667,-90.4833,1022.65,11111222 
WAVCIS,ioos:station:WAVCIS:CSI06:1,2010-10-06T02:00:00Z,28.8667,-90.4833,1022.91,11111222 
WAVCIS,ioos:station:WAVCIS:CSI06:1,2010-10-06T03:00:00Z,28.8667,-90.4833,1023.08,11111222 
WAVCIS,ioos:station:WAVCIS:CSI06:1,2010-10-06T04:00:00Z,28.8667,-90.4833,1023.14,11111222 
WAVCIS,ioos:station:WAVCIS:CSI06:1,2010-10-06T05:00:00Z,28.8667,-90.4833,1022.82,11111222 
WAVCIS,ioos:station:WAVCIS:CSI06:1,2010-10-06T06:00:00Z,28.8667,-90.4833,1022.55,11111222 
WAVCIS,ioos:station:WAVCIS:CSI06:1,2010-10-06T07:00:00Z,28.8667,-90.4833,1022.42,11111222 
WAVCIS,ioos:station:WAVCIS:CSI06:1,2010-10-06T08:00:00Z,28.8667,-90.4833,1022.11,11111222 
WAVCIS,ioos:station:WAVCIS:CSI06:1,2010-10-06T09:00:00Z,28.8667,-90.4833,1021.88,11111222 
WAVCIS,ioos:station:WAVCIS:CSI06:1,2010-10-06T10:00:00Z,28.8667,-90.4833,1021.96,11111222 
WAVCIS,ioos:station:WAVCIS:CSI06:1,2010-10-06T11:00:00Z,28.8667,-90.4833,1022.37,11111222 
WAVCIS,ioos:station:WAVCIS:CSI06:1,2010-10-06T12:00:00Z,28.8667,-90.4833,1022.93,11111222 
WAVCIS,ioos:station:WAVCIS:CSI06:1,2010-10-06T13:00:00Z,28.8667,-90.4833,1023.2,11111222 
WAVCIS,ioos:station:WAVCIS:CSI06:1,2010-10-06T14:00:00Z,28.8667,-90.4833,1023.54,11111222 
WAVCIS,ioos:station:WAVCIS:CSI06:1,2010-10-06T15:00:00Z,28.8667,-90.4833,1023.98,11111222 
WAVCIS,ioos:station:WAVCIS:CSI06:1,2010-10-06T16:00:00Z,28.8667,-90.4833,1024.1,11111222 
WAVCIS,ioos:station:WAVCIS:CSI06:1,2010-10-06T17:00:00Z,28.8667,-90.4833,1023.88,11111222 
WAVCIS,ioos:station:WAVCIS:CSI06:1,2010-10-06T18:00:00Z,28.8667,-90.4833,1022.97,11111222 
WAVCIS,ioos:station:WAVCIS:CSI06:1,2010-10-06T19:00:00Z,28.8667,-90.4833,1022.06,11111222 
WAVCIS,ioos:station:WAVCIS:CSI06:1,2010-10-06T20:00:00Z,28.8667,-90.4833,1021.31,11111222 
WAVCIS,ioos:station:WAVCIS:CSI06:1,2010-10-06T21:00:00Z,28.8667,-90.4833,1020.66,11111222 
WAVCIS,ioos:station:WAVCIS:CSI06:1,2010-10-06T22:00:00Z,28.8667,-90.4833,1020.2,11111222 
WAVCIS,ioos:station:WAVCIS:CSI06:1,2010-10-06T23:00:00Z,28.8667,-90.4833,1020.14,11111222 
WAVCIS,ioos:station:WAVCIS:CSI06:1,2010-10-07T00:00:00Z,28.8667,-90.4833,1020.17,11111222 
WAVCIS,ioos:station:WAVCIS:CSI06:1,2010-10-07T01:00:00Z,28.8667,-90.4833,1020.36,11111222 
WAVCIS,ioos:station:WAVCIS:CSI06:1,2010-10-07T02:00:00Z,28.8667,-90.4833,1020.72,11111222 
WAVCIS,ioos:station:WAVCIS:CSI06:1,2010-10-07T03:00:00Z,28.8667,-90.4833,1020.98,11111222 
WAVCIS,ioos:station:WAVCIS:CSI06:1,2010-10-07T04:00:00Z,28.8667,-90.4833,1020.89,11111222 
WAVCIS,ioos:station:WAVCIS:CSI06:1,2010-10-07T05:00:00Z,28.8667,-90.4833,1020.76,11111222 
WAVCIS,ioos:station:WAVCIS:CSI06:1,2010-10-07T06:00:00Z,28.8667,-90.4833,1020.38,11111222 
WAVCIS,ioos:station:WAVCIS:CSI06:1,2010-10-07T07:00:00Z,28.8667,-90.4833,1020.2,11111222 
WAVCIS,ioos:station:WAVCIS:CSI06:1,2010-10-07T08:00:00Z,28.8667,-90.4833,1019.97,11111222 
WAVCIS,ioos:station:WAVCIS:CSI06:1,2010-10-07T09:00:00Z,28.8667,-90.4833,1019.83,11111222 
WAVCIS,ioos:station:WAVCIS:CSI06:1,2010-10-07T10:00:00Z,28.8667,-90.4833,1020.02,11111222 
WAVCIS,ioos:station:WAVCIS:CSI06:1,2010-10-07T11:00:00Z,28.8667,-90.4833,1020.29,11111222 
WAVCIS,ioos:station:WAVCIS:CSI06:1,2010-10-07T12:00:00Z,28.8667,-90.4833,1020.8,11111222 
WAVCIS,ioos:station:WAVCIS:CSI06:1,2010-10-07T13:00:00Z,28.8667,-90.4833,1021.37,11111222 
WAVCIS,ioos:station:WAVCIS:CSI06:1,2010-10-07T14:00:00Z,28.8667,-90.4833,1021.9,11111222 
WAVCIS,ioos:station:WAVCIS:CSI06:1,2010-10-07T15:00:00Z,28.8667,-90.4833,1022.19,11111222 
WAVCIS,ioos:station:WAVCIS:CSI06:1,2010-10-07T16:00:00Z,28.8667,-90.4833,1022.24,11111222 
WAVCIS,ioos:station:WAVCIS:CSI06:1,2010-10-07T17:00:00Z,28.8667,-90.4833,1022.02,11111222 
WAVCIS,ioos:station:WAVCIS:CSI06:1,2010-10-07T18:00:00Z,28.8667,-90.4833,1021.34,11111222 
WAVCIS,ioos:station:WAVCIS:CSI06:1,2010-10-07T19:00:00Z,28.8667,-90.4833,1020.32,11111222 
WAVCIS,ioos:station:WAVCIS:CSI06:1,2010-10-07T20:00:00Z,28.8667,-90.4833,1019.55,11111222 
WAVCIS,ioos:station:WAVCIS:CSI06:1,2010-10-07T21:00:00Z,28.8667,-90.4833,1019.18,11111222 
WAVCIS,ioos:station:WAVCIS:CSI06:1,2010-10-07T22:00:00Z,28.8667,-90.4833,1018.83,11111222 
WAVCIS,ioos:station:WAVCIS:CSI06:1,2010-10-07T23:00:00Z,28.8667,-90.4833,1018.81,11111222 
WAVCIS,ioos:station:WAVCIS:CSI06:1,2010-10-08T00:00:00Z,28.8667,-90.4833,1019.1,11111222 
WAVCIS,ioos:station:WAVCIS:CSI06:1,2010-10-08T01:00:00Z,28.8667,-90.4833,1019.37,11111222 
WAVCIS,ioos:station:WAVCIS:CSI06:1,2010-10-08T02:00:00Z,28.8667,-90.4833,1019.46,11111222 
WAVCIS,ioos:station:WAVCIS:CSI06:1,2010-10-08T03:00:00Z,28.8667,-90.4833,1019.58,11111222 
WAVCIS,ioos:station:WAVCIS:CSI06:1,2010-10-08T04:00:00Z,28.8667,-90.4833,1019.58,11111222 
WAVCIS,ioos:station:WAVCIS:CSI06:1,2010-10-08T05:00:00Z,28.8667,-90.4833,1019.44,11111222 
WAVCIS,ioos:station:WAVCIS:CSI06:1,2010-10-08T06:00:00Z,28.8667,-90.4833,1019.17,11111222 
WAVCIS,ioos:station:WAVCIS:CSI06:1,2010-10-08T07:00:00Z,28.8667,-90.4833,1018.97,11111222 
WAVCIS,ioos:station:WAVCIS:CSI06:1,2010-10-08T08:00:00Z,28.8667,-90.4833,1018.65,11111222 
WAVCIS,ioos:station:WAVCIS:CSI06:1,2010-10-08T09:00:00Z,28.8667,-90.4833,1018.22,11111222 
WAVCIS,ioos:station:WAVCIS:CSI06:1,2010-10-08T10:00:00Z,28.8667,-90.4833,1018.29,11111222 
WAVCIS,ioos:station:WAVCIS:CSI06:1,2010-10-08T11:00:00Z,28.8667,-90.4833,1018.71,11111222 
WAVCIS,ioos:station:WAVCIS:CSI06:1,2010-10-08T12:00:00Z,28.8667,-90.4833,1019.2,11111222 
WAVCIS,ioos:station:WAVCIS:CSI06:1,2010-10-08T13:00:00Z,28.8667,-90.4833,1019.64,11111222 
WAVCIS,ioos:station:WAVCIS:CSI06:1,2010-10-08T14:00:00Z,28.8667,-90.4833,1020.31,11111222 
WAVCIS,ioos:station:WAVCIS:CSI06:1,2010-10-08T15:00:00Z,28.8667,-90.4833,1020.68,11111222 
WAVCIS,ioos:station:WAVCIS:CSI06:1,2010-10-08T16:00:00Z,28.8667,-90.4833,1020.59,11111222 
WAVCIS,ioos:station:WAVCIS:CSI06:1,2010-10-08T17:00:00Z,28.8667,-90.4833,1020.37,11111222 
WAVCIS,ioos:station:WAVCIS:CSI06:1,2010-10-08T18:00:00Z,28.8667,-90.4833,1019.66,11111222 
WAVCIS,ioos:station:WAVCIS:CSI06:1,2010-10-08T19:00:00Z,28.8667,-90.4833,1018.72,11111222 
WAVCIS,ioos:station:WAVCIS:CSI06:1,2010-10-08T20:00:00Z,28.8667,-90.4833,1018.01,11111222 
WAVCIS,ioos:station:WAVCIS:CSI06:1,2010-10-08T21:00:00Z,28.8667,-90.4833,1017.72,11111222 
WAVCIS,ioos:station:WAVCIS:CSI06:1,2010-10-08T22:00:00Z,28.8667,-90.4833,1017.53,11111222 
WAVCIS,ioos:station:WAVCIS:CSI06:1,2010-10-08T23:00:00Z,28.8667,-90.4833,1017.37,11111222 
WAVCIS,ioos:station:WAVCIS:CSI06:1,2010-10-09T00:00:00Z,28.8667,-90.4833,1017.59,11111222 
WAVCIS,ioos:station:WAVCIS:CSI06:1,2010-10-09T01:00:00Z,28.8667,-90.4833,1017.92,11111222 
WAVCIS,ioos:station:WAVCIS:CSI06:1,2010-10-09T02:00:00Z,28.8667,-90.4833,1018.38,11111222 
WAVCIS,ioos:station:WAVCIS:CSI06:1,2010-10-09T03:00:00Z,28.8667,-90.4833,1018.66,11111222 
WAVCIS,ioos:station:WAVCIS:CSI06:1,2010-10-09T04:00:00Z,28.8667,-90.4833,1018.47,11111222 
WAVCIS,ioos:station:WAVCIS:CSI06:1,2010-10-09T05:00:00Z,28.8667,-90.4833,1017.95,11111222 
WAVCIS,ioos:station:WAVCIS:CSI06:1,2010-10-09T06:00:00Z,28.8667,-90.4833,1017.65,11111222 
WAVCIS,ioos:station:WAVCIS:CSI06:1,2010-10-09T07:00:00Z,28.8667,-90.4833,1017.61,11111222 
WAVCIS,ioos:station:WAVCIS:CSI06:1,2010-10-09T08:00:00Z,28.8667,-90.4833,1017.41,11111222 
WAVCIS,ioos:station:WAVCIS:CSI06:1,2010-10-09T09:00:00Z,28.8667,-90.4833,1017.1,11111222 
WAVCIS,ioos:station:WAVCIS:CSI06:1,2010-10-09T10:00:00Z,28.8667,-90.4833,1017.46,11111222 
WAVCIS,ioos:station:WAVCIS:CSI06:1,2010-10-09T11:00:00Z,28.8667,-90.4833,1017.9,11111222 
WAVCIS,ioos:station:WAVCIS:CSI06:1,2010-10-09T12:00:00Z,28.8667,-90.4833,1018.3,11111222 
WAVCIS,ioos:station:WAVCIS:CSI06:1,2010-10-09T13:00:00Z,28.8667,-90.4833,1018.66,11111222 
WAVCIS,ioos:station:WAVCIS:CSI06:1,2010-10-09T14:00:00Z,28.8667,-90.4833,1019.16,11111222 
WAVCIS,ioos:station:WAVCIS:CSI06:1,2010-10-09T15:00:00Z,28.8667,-90.4833,1019.36,11111222 
WAVCIS,ioos:station:WAVCIS:CSI06:1,2010-10-09T16:00:00Z,28.8667,-90.4833,1019.35,11111222 
WAVCIS,ioos:station:WAVCIS:CSI06:1,2010-10-09T17:00:00Z,28.8667,-90.4833,1018.93,11111222 
WAVCIS,ioos:station:WAVCIS:CSI06:1,2010-10-09T18:00:00Z,28.8667,-90.4833,1018.29,11111222 
WAVCIS,ioos:station:WAVCIS:CSI06:1,2010-10-09T19:00:00Z,28.8667,-90.4833,1017.47,11111222 
WAVCIS,ioos:station:WAVCIS:CSI06:1,2010-10-09T20:00:00Z,28.8667,-90.4833,1016.85,11111222 
WAVCIS,ioos:station:WAVCIS:CSI06:1,2010-10-09T21:00:00Z,28.8667,-90.4833,1016.52,11111222 
WAVCIS,ioos:station:WAVCIS:CSI06:1,2010-10-09T22:00:00Z,28.8667,-90.4833,1016.1,11111222 
WAVCIS,ioos:station:WAVCIS:CSI06:1,2010-10-09T23:00:00Z,28.8667,-90.4833,1016.06,11111222 
WAVCIS,ioos:station:WAVCIS:CSI06:1,2010-10-10T00:00:00Z,28.8667,-90.4833,1016.31,11111222 
WAVCIS,ioos:station:WAVCIS:CSI06:1,2010-10-10T01:00:00Z,28.8667,-90.4833,1016.56,11111222 
WAVCIS,ioos:station:WAVCIS:CSI06:1,2010-10-10T02:00:00Z,28.8667,-90.4833,1016.82,11111222 
WAVCIS,ioos:station:WAVCIS:CSI06:1,2010-10-10T03:00:00Z,28.8667,-90.4833,1017.11,11111222 
WAVCIS,ioos:station:WAVCIS:CSI06:1,2010-10-10T04:00:00Z,28.8667,-90.4833,1017.12,11111222 
WAVCIS,ioos:station:WAVCIS:CSI06:1,2010-10-10T05:00:00Z,28.8667,-90.4833,1016.94,11111222 
WAVCIS,ioos:station:WAVCIS:CSI06:1,2010-10-10T06:00:00Z,28.8667,-90.4833,1016.63,11111222 
WAVCIS,ioos:station:WAVCIS:CSI06:1,2010-10-10T07:00:00Z,28.8667,-90.4833,1016.47,11111222 
WAVCIS,ioos:station:WAVCIS:CSI06:1,2010-10-10T08:00:00Z,28.8667,-90.4833,1016.23,11111222 
WAVCIS,ioos:station:WAVCIS:CSI06:1,2010-10-10T09:00:00Z,28.8667,-90.4833,1015.9,11111222 
WAVCIS,ioos:station:WAVCIS:CSI06:1,2010-10-10T10:00:00Z,28.8667,-90.4833,1016.04,11111222 
WAVCIS,ioos:station:WAVCIS:CSI06:1,2010-10-10T11:00:00Z,28.8667,-90.4833,1016.33,11111222 
WAVCIS,ioos:station:WAVCIS:CSI06:1,2010-10-10T12:00:00Z,28.8667,-90.4833,1016.75,11111222 
WAVCIS,ioos:station:WAVCIS:CSI06:1,2010-10-10T13:00:00Z,28.8667,-90.4833,1017.19,11111222 
WAVCIS,ioos:station:WAVCIS:CSI06:1,2010-10-10T14:00:00Z,28.8667,-90.4833,1017.54,11111222 
WAVCIS,ioos:station:WAVCIS:CSI06:1,2010-10-10T15:00:00Z,28.8667,-90.4833,1017.73,11111222 
WAVCIS,ioos:station:WAVCIS:CSI06:1,2010-10-10T16:00:00Z,28.8667,-90.4833,1017.53,11111222 
WAVCIS,ioos:station:WAVCIS:CSI06:1,2010-10-10T17:00:00Z,28.8667,-90.4833,1017.2,11111222 
WAVCIS,ioos:station:WAVCIS:CSI06:1,2010-10-10T18:00:00Z,28.8667,-90.4833,1016.38,11111222 
WAVCIS,ioos:station:WAVCIS:CSI06:1,2010-10-10T19:00:00Z,28.8667,-90.4833,1015.54,11111222 
WAVCIS,ioos:station:WAVCIS:CSI06:1,2010-10-10T20:00:00Z,28.8667,-90.4833,1014.97,11111222 
WAVCIS,ioos:station:WAVCIS:CSI06:1,2010-10-10T21:00:00Z,28.8667,-90.4833,1014.47,11111222 
WAVCIS,ioos:station:WAVCIS:CSI06:1,2010-10-10T22:00:00Z,28.8667,-90.4833,1014.15,11111222 
WAVCIS,ioos:station:WAVCIS:CSI06:1,2010-10-10T23:00:00Z,28.8667,-90.4833,1014.14,11111222 
WAVCIS,ioos:station:WAVCIS:CSI06:1,2010-10-11T00:00:00Z,28.8667,-90.4833,1014.09,11111222 
WAVCIS,ioos:station:WAVCIS:CSI06:1,2010-10-11T01:00:00Z,28.8667,-90.4833,1014.45,11111222 
WAVCIS,ioos:station:WAVCIS:CSI06:1,2010-10-11T02:00:00Z,28.8667,-90.4833,1014.83,11111222 
WAVCIS,ioos:station:WAVCIS:CSI06:1,2010-10-11T03:00:00Z,28.8667,-90.4833,1015.03,11111222 
WAVCIS,ioos:station:WAVCIS:CSI06:1,2010-10-11T04:00:00Z,28.8667,-90.4833,1015.08,11111222 
WAVCIS,ioos:station:WAVCIS:CSI06:1,2010-10-11T05:00:00Z,28.8667,-90.4833,1014.86,11111222 
WAVCIS,ioos:station:WAVCIS:CSI06:1,2010-10-11T06:00:00Z,28.8667,-90.4833,1014.73,11111222 
WAVCIS,ioos:station:WAVCIS:CSI06:1,2010-10-11T07:00:00Z,28.8667,-90.4833,1014.39,11111222 
WAVCIS,ioos:station:WAVCIS:CSI06:1,2010-10-11T08:00:00Z,28.8667,-90.4833,1014.23,11111222 
WAVCIS,ioos:station:WAVCIS:CSI06:1,2010-10-11T09:00:00Z,28.8667,-90.4833,1013.96,11111222 
WAVCIS,ioos:station:WAVCIS:CSI06:1,2010-10-11T10:00:00Z,28.8667,-90.4833,1014.02,11111222 
WAVCIS,ioos:station:WAVCIS:CSI06:1,2010-10-11T11:00:00Z,28.8667,-90.4833,1014.34,11111222 
WAVCIS,ioos:station:WAVCIS:CSI06:1,2010-10-11T12:00:00Z,28.8667,-90.4833,1014.62,11111222 
WAVCIS,ioos:station:WAVCIS:CSI06:1,2010-10-11T13:00:00Z,28.8667,-90.4833,1014.98,11111222 
WAVCIS,ioos:station:WAVCIS:CSI06:1,2010-10-11T14:00:00Z,28.8667,-90.4833,1015.32,11111222 
WAVCIS,ioos:station:WAVCIS:CSI06:1,2010-10-11T15:00:00Z,28.8667,-90.4833,1015.66,11111222 
WAVCIS,ioos:station:WAVCIS:CSI06:1,2010-10-11T16:00:00Z,28.8667,-90.4833,1015.57,11111222 
WAVCIS,ioos:station:WAVCIS:CSI06:1,2010-10-11T17:00:00Z,28.8667,-90.4833,1015.21,11111222 
WAVCIS,ioos:station:WAVCIS:CSI06:1,2010-10-11T18:00:00Z,28.8667,-90.4833,1014.84,11111222 
WAVCIS,ioos:station:WAVCIS:CSI06:1,2010-10-11T19:00:00Z,28.8667,-90.4833,1014.17,11111222 
WAVCIS,ioos:station:WAVCIS:CSI06:1,2010-10-11T20:00:00Z,28.8667,-90.4833,1013.67,11111222 
WAVCIS,ioos:station:WAVCIS:CSI06:1,2010-10-11T21:00:00Z,28.8667,-90.4833,1013.34,11111222 
WAVCIS,ioos:station:WAVCIS:CSI06:1,2010-10-11T22:00:00Z,28.8667,-90.4833,1013.27,11111222 